User: anonymous   Login
Location: Brede
(50.9167°N, 0.6000°E)
Time: 23:12:02
(UTC+00:00)
Language:

Vanguard 2 Rocket - Orbit

View from above orbital plane
View from above orbital plane
View from above satellite
View from above satellite

Ground track
Ground track

The orbit data is extracted from the following two-line orbital elements,

1    12U 59001B   20330.50694389 +.00000303 +00000-0 +16069-3 0  9991
2    12 032.9012 147.4702 1666499 202.7029 149.0559 11.44359537298431
Epoch (UTC): 25 November 2020 12:09:59
Eccentricity: 0.1666499
inclination: 32.9012°
perigee height: 554 km
apogee height: 3326 km
right ascension of ascending node: 147.4702°
argument of perigee: 202.7029°
revolutions per day: 11.44359537
mean anomaly at epoch: 149.0559°
orbit number at epoch: 29843

The dashed part of the orbit path shows where the satellite is in the earth's shadow,  

DLR